User: anonymous   Login
Location: Plymouth
(43.7570°N, 71.6890°W)
Time: 23:59:24
(UTC-04:00)
Language:

Cosmos 2016 Rocket - Orbit

View from above orbital plane
View from above orbital plane
View from above satellite
View from above satellite

Ground track
Ground track

The orbit data is extracted from the following two-line orbital elements,

1 19922U 89028B   15086.13251141  .00000147  00000-0  13296-3 0  9994
2 19922 082.9584 309.9018 0036653 005.2235 156.5350 13.77145257305321
Epoch (UTC): 27 March 2015 03:10:48
Eccentricity: 0.0036653
inclination: 82.9584°
perigee height: 947 km
apogee height: 1001 km
right ascension of ascending node: 309.9018°
argument of perigee: 5.2235°
revolutions per day: 13.77145257
mean anomaly at epoch: 156.5350°
orbit number at epoch: 30532

The dashed part of the orbit path shows where the satellite is in the earth's shadow,  

DLR